STARLINK-36733

Last updated on Sun Mar 15 2026 00:02:07 GMT+0000 (Coordinated Universal Time)

1 67811U 26032Q 26073.48139080 .00167655 00000+0 11015-2 0 9996 2 67811 97.2833 260.2935 0001233 76.1685 283.9718 15.75220086 5544
UTC large
Height (km)
Speed (km/s)
/
Latitude / Longitude
Inclination (degrees)
Orbital Period (minutes)
Azimuth
Elevation
Range (km)
Doppler Factor

Next 0 passes for location: London (51.5072 / 0.1276)

Sorry there are no passes over London.